User: anonymous   Login
Location: Unspecified
(0.0000°N, 0.0000°E)
Time: 13:06:21
(UTC+00:00)
Language:

Tiangong 1 - Orbit

View from above orbital plane
View from above orbital plane
View from above satellite
View from above satellite

Ground track
Ground track

The orbit data is extracted from the following two-line orbital elements,

1 37820U 11053A   16038.10385883  .00015554  00000-0  19994-3 0  9999
2 37820  42.7648 309.0562 0011104 233.1439 268.9039 15.58780725250091
Epoch (UTC): 07 February 2016 02:29:33
Eccentricity: 0.0011104
inclination: 42.7648°
perigee height: 383 km
apogee height: 399 km
right ascension of ascending node: 309.0562°
argument of perigee: 233.1439°
revolutions per day: 15.58780725
mean anomaly at epoch: 268.9039°
orbit number at epoch: 25009

The dashed part of the orbit path shows where the satellite is in the earth's shadow,  

DLR